Weather History for LHDC - November, 2012

Change the Weather History Date:

Friday, November 16, 2012

  Actual Average Record
Temperature  
Mean Temperature 38 °F -  
Max Temperature 50 °F 42 °F - ()
Min Temperature 27 °F 30 °F - ()
Degree Days  
Heating Degree Days 26    
Moisture  
Dew Point 36 °F    
Average Humidity 89    
Maximum Humidity 100    
Minimum Humidity 66    
Precipitation  
Precipitation 0.00 in 0.06 in - ()
Sea Level Pressure  
Sea Level Pressure 30.31 in    
Wind  
Wind Speed 2 mph ()    
Max Wind Speed 6 mph    
Max Gust Speed -    
Visibility 2.0 miles    
Events Fog    
T = Trace of Precipitation, MM = Missing Value Source: Averaged Metar Reports

Daily Weather History Graph

Daily Weather History Graph

Search for Another Location

Airport or City:

Trip Planner

Search our weather history database for the weather conditions in past years. The results will help you decide how hot, cold, wet, or windy it might be!

Date:

Astronomy

Nov. 16, 2012 Rise Set
Actual Time 6:40 AM CET 3:56 PM CET
Civil Twilight 6:06 AM CET 4:29 PM CET
Nautical Twilight 5:29 AM CET 5:07 PM CET
Astronomical Twilight 4:52 AM CET 5:43 PM CET
Moon 9:21 AM CET (11/16) 6:30 PM CET (11/16)
Length of Visible Light 10h 23m
Length of Day
9h 15m
Waxing Crescent, 9% of the Moon is Illuminated
Nov 16
Waxing Crescent
Nov 20
First Quarter
Nov 28
Full
Dec 6
Last Quarter
Dec 13
New

Hourly Weather History & Observations

Time (CET) Temp. Windchill Dew Point Humidity Pressure Visibility Wind Dir Wind Speed Gust Speed Precip Events Conditions
1:00 AM 31 °F - 30 °F 96% 30.32 in - Calm Calm - -  
3:11 AM 28.4 °F - 28.4 °F 100% 30.30 in - East 2.3 mph - N/A   Unknown
5:15 AM 28.4 °F - 28.4 °F 100% 30.30 in 0.1 mi Calm Calm - N/A Fog Light Freezing Fog
5:45 AM 28.4 °F - 28.4 °F 100% 30.30 in 0.1 mi ESE 2.3 mph - N/A Fog Light Freezing Fog
6:00 AM - - - N/A% - 0.1 mi Variable 3.5 mph - N/A Fog Light Freezing Fog
6:15 AM 28.4 °F - 26.6 °F 93% 30.30 in 0.1 mi ENE 1.2 mph - N/A Fog Light Freezing Fog
6:45 AM 28.4 °F - 26.6 °F 93% 30.30 in 0.1 mi Calm Calm - N/A Fog Light Freezing Fog
7:00 AM 28 °F - 27 °F 96% 30.33 in 0 mi Calm Calm - - Fog Heavy Fog
7:15 AM 30.2 °F - 28.4 °F 93% 30.30 in 0.1 mi North 2.3 mph - N/A Fog Light Freezing Fog
7:45 AM 30.2 °F 25.4 °F 30.2 °F 100% 30.33 in 0.1 mi ENE 4.6 mph - N/A Fog Light Freezing Fog
8:10 AM 32.0 °F - 30.2 °F 93% 30.36 in 0.1 mi East 2.3 mph - N/A Fog Light Freezing Fog
8:15 AM 32.0 °F - 30.2 °F 93% 30.33 in 0.1 mi East 2.3 mph - N/A Fog Light Freezing Fog
8:45 AM 32.0 °F 27.5 °F 32.0 °F 100% 30.33 in 0.1 mi ENE 4.6 mph - N/A Fog Fog
9:00 AM - - - N/A% - 0.1 mi ENE 5.8 mph - N/A Fog Light Freezing Fog
9:15 AM 35.6 °F 32.8 °F 33.8 °F 93% 30.33 in 0.1 mi NE 3.5 mph - N/A Fog Fog
9:45 AM 35.6 °F - 35.6 °F 100% 30.33 in 0.1 mi NE 2.3 mph - N/A Fog Fog
10:15 AM 37.4 °F 34.9 °F 37.4 °F 100% 30.33 in 0.1 mi NE 3.5 mph - N/A Fog Fog
10:45 AM 39.2 °F 37.0 °F 39.2 °F 100% 30.33 in 0.2 mi ENE 3.5 mph - N/A Fog Fog
10:59 AM 39.2 °F - 39.2 °F 100% 30.33 in 1.2 mi ENE 2.3 mph - N/A   Mostly Cloudy
11:15 AM 41.0 °F - 41.0 °F 100% 30.33 in 1.6 mi East 2.3 mph - N/A   Partly Cloudy
11:23 AM 41.0 °F - 41.0 °F 100% 30.33 in 4.3 mi East 2.3 mph - N/A   Unknown
11:45 AM 42.8 °F - 42.8 °F 100% 30.30 in - NE 1.2 mph - N/A   Clear
12:00 PM - - - N/A% - 5.0 mi ENE 3.5 mph - N/A   Unknown
12:15 PM 46.4 °F - 42.8 °F 87% 30.30 in - NE 2.3 mph - N/A   Clear
12:45 PM 48.2 °F - 41.0 °F 76% 30.30 in - North 2.3 mph - N/A   Clear
1:00 PM 48 °F - 42 °F 71% 30.30 in 12 mi North 2.2 mph - -   Partly Cloudy
1:15 PM 50.0 °F - 41.0 °F 71% 30.30 in - North 3.5 mph - N/A   Clear
1:45 PM 50.0 °F - 42.8 °F 76% 30.27 in - West 3.5 mph - N/A   Clear
2:15 PM 50.0 °F - 42.8 °F 76% 30.27 in 5.0 mi WNW 3.5 mph - N/A   Unknown
2:45 PM 50.0 °F - 42.8 °F 76% 30.27 in 5.0 mi WNW 3.5 mph - N/A   Unknown
3:15 PM 50.0 °F - 39.2 °F 66% 30.27 in 4.3 mi NNE 3.5 mph - N/A   Partly Cloudy
3:45 PM 48.2 °F - 37.4 °F 66% 30.27 in 4.3 mi NE 3.5 mph - N/A   Partly Cloudy
4:15 PM 46.4 °F - 41.0 °F 81% 30.27 in 4.3 mi NNW 1.2 mph - N/A   Partly Cloudy
4:45 PM 44.6 °F 43.1 °F 39.2 °F 81% 30.27 in 5.0 mi NE 3.5 mph - N/A   Partly Cloudy
5:00 PM - - - N/A% - - North - - N/A   Unknown
7:00 PM 40 °F - 37 °F 83% 30.28 in - NNE 2.2 mph - -